Weather History for Natchitoches, LA

Change the Weather History Date:

Thursday, April 4, 2013

  Actual Average Record
Temperature  
Mean Temperature 44 °F -  
Max Temperature 47 °F 75 °F 87 °F (1940)
Min Temperature 43 °F 51 °F 31 °F (1987)
Degree Days  
Heating Degree Days 20    
Moisture  
Dew Point 42 °F    
Average Humidity 90    
Maximum Humidity 97    
Minimum Humidity 84    
Precipitation  
Precipitation 0.00 in - - ()
Sea Level Pressure  
Sea Level Pressure 30.08 in    
Wind  
Wind Speed 8 mph (NNW)    
Max Wind Speed 15 mph    
Max Gust Speed 20 mph    
Visibility 10 miles    
Events      
Averages and records for this station are not official NWS values.
T = Trace of Precipitation, MM = Missing Value Source: NWS Daily Summary

Daily Weather History Graph

Daily Weather History Graph

Search for Another Location

Airport:

Trip Planner

Search our weather history database for the weather conditions in past years. The results will help you decide how hot, cold, wet, or windy it might be!

Date:

Astronomy

Apr. 04, 2013 Rise Set
Actual Time 6:56 AM CDT 7:34 PM CDT
Civil Twilight 6:32 AM CDT 7:58 PM CDT
Nautical Twilight 6:03 AM CDT 8:27 PM CDT
Astronomical Twilight 5:33 AM CDT 8:57 PM CDT
Moon 3:03 AM CDT (4/4) 2:12 PM CDT (4/4)
Length of Visible Light 13h 26m
Length of Day
12h 37m
Waning Crescent, 33% of the Moon is Illuminated
Apr 4
Waning Crescent
Apr 10
New
Apr 18
First Quarter
Apr 25
Full
May 2
Last Quarter

Hourly Weather History & Observations

Time (CDT) Temp. Windchill Dew Point Humidity Pressure Visibility Wind Dir Wind Speed Gust Speed Precip Events Conditions
12:15 AM 43.9 °F 42.3 °F 42.8 °F 96% 30.10 in 10.0 mi North 3.5 mph - N/A   Overcast
12:35 AM 43.9 °F 41.3 °F 42.6 °F 95% 30.10 in 10.0 mi North 4.6 mph - N/A   Overcast
12:55 AM 43.9 °F 40.5 °F 42.6 °F 95% 30.09 in 10.0 mi North 5.8 mph - N/A   Overcast
1:15 AM 43.7 °F 39.1 °F 42.4 °F 95% 30.08 in 10.0 mi North 8.1 mph - N/A   Overcast
1:35 AM 43.7 °F 39.7 °F 42.6 °F 96% 30.08 in 10.0 mi North 6.9 mph - N/A   Overcast
1:55 AM 43.7 °F 39.7 °F 42.4 °F 95% 30.07 in 7.0 mi North 6.9 mph - N/A   Overcast
2:15 AM 43.7 °F 39.1 °F 42.8 °F 97% 30.06 in 5.0 mi North 8.1 mph - N/A   Overcast
2:35 AM 43.3 °F 38.6 °F 42.4 °F 97% 30.05 in 7.0 mi North 8.1 mph - N/A   Overcast
2:55 AM 43.5 °F 40.9 °F 42.6 °F 97% 30.04 in 10.0 mi North 4.6 mph - N/A   Overcast
3:15 AM 43.3 °F 39.2 °F 42.3 °F 96% 30.03 in 10.0 mi North 6.9 mph - N/A   Overcast
3:35 AM 43.7 °F 39.1 °F 41.9 °F 93% 30.03 in 10.0 mi North 8.1 mph - N/A   Overcast
3:55 AM 43.7 °F 40.3 °F 42.1 °F 94% 30.02 in 10.0 mi North 5.8 mph - N/A   Overcast
4:15 AM 43.3 °F 38.6 °F 42.3 °F 96% 30.01 in 10.0 mi North 8.1 mph - N/A   Overcast
4:35 AM 43.3 °F 40.7 °F 41.9 °F 95% 30.02 in 10.0 mi NNW 4.6 mph - N/A   Overcast
4:55 AM 43.3 °F 37.2 °F 41.9 °F 95% 30.02 in 10.0 mi NW 11.5 mph - N/A   Overcast
5:15 AM 43.3 °F 38.1 °F 41.4 °F 93% 30.03 in 10.0 mi NNW 9.2 mph - N/A   Overcast
5:35 AM 43.2 °F 39.0 °F 41.9 °F 95% 30.03 in 10.0 mi NW 6.9 mph - N/A   Overcast
5:55 AM 43.3 °F 38.6 °F 41.2 °F 92% 30.03 in 10.0 mi NNW 8.1 mph - N/A   Overcast
6:15 AM 43.3 °F 39.9 °F 41.2 °F 92% 30.03 in 10.0 mi NNW 5.8 mph - N/A   Overcast
6:35 AM 43.3 °F 37.2 °F 41.5 °F 93% 30.04 in 10.0 mi NW 11.5 mph - N/A   Overcast
6:55 AM 43.3 °F 39.2 °F 41.5 °F 93% 30.05 in 10.0 mi NNW 6.9 mph - N/A   Overcast
7:15 AM 43.5 °F 39.4 °F 41.7 °F 93% 30.06 in 10.0 mi NNW 6.9 mph - N/A   Overcast
7:35 AM 43.7 °F 39.1 °F 41.4 °F 91% 30.06 in 10.0 mi NNW 8.1 mph - N/A   Overcast
7:55 AM 43.3 °F 39.2 °F 41.2 °F 92% 30.07 in 10.0 mi NNW 6.9 mph - N/A   Overcast
8:15 AM 43.2 °F 37.9 °F 41.2 °F 93% 30.07 in 10.0 mi NNW 9.2 mph - N/A   Overcast
8:35 AM 43.7 °F 38.6 °F 41.5 °F 92% 30.08 in 10.0 mi NNW 9.2 mph - N/A   Overcast
8:55 AM 43.9 °F 40.5 °F 41.4 °F 91% 30.08 in 10.0 mi NNW 5.8 mph - N/A   Overcast
9:15 AM 44.1 °F 40.8 °F 41.4 °F 90% 30.09 in 10.0 mi NNW 5.8 mph 9.2 mph N/A   Overcast
9:35 AM 44.1 °F 38.6 °F 41.5 °F 91% 30.10 in 7.0 mi NW 10.4 mph - N/A   Overcast
9:55 AM 43.9 °F 40.5 °F 42.4 °F 95% 30.10 in 4.0 mi NW 5.8 mph - N/A   Overcast
10:15 AM 43.7 °F 39.7 °F 42.1 °F 94% 30.09 in 5.0 mi NW 6.9 mph - N/A   Overcast
10:35 AM 44.1 °F 39.0 °F 42.3 °F 93% 30.10 in 7.0 mi NW 9.2 mph 16.1 mph N/A   Overcast
10:55 AM 45.5 °F 40.3 °F 42.4 °F 89% 30.09 in 10.0 mi NW 10.4 mph - N/A   Overcast
11:35 AM 46.8 °F - 43.0 °F 87% 30.10 in 10.0 mi NW 6.9 mph 17.3 mph N/A   Overcast
11:55 AM 46.6 °F - 42.1 °F 84% 30.11 in 10.0 mi NW 6.9 mph - N/A   Overcast
12:15 PM 46.4 °F 41.5 °F 42.4 °F 86% 30.10 in 10.0 mi NW 10.4 mph - N/A   Overcast
12:35 PM 45.5 °F 40.8 °F 42.6 °F 90% 30.10 in 10.0 mi NW 9.2 mph 16.1 mph N/A   Overcast
12:55 PM 46.4 °F 41.5 °F 42.8 °F 87% 30.09 in 10.0 mi WNW 10.4 mph - N/A   Overcast
1:15 PM 46.6 °F - 42.6 °F 86% 30.09 in 10.0 mi NW 11.5 mph 16.1 mph N/A   Overcast
1:35 PM 46.9 °F - 43.0 °F 86% 30.08 in 10.0 mi WNW 12.7 mph - N/A   Overcast
1:55 PM 46.4 °F 42.4 °F 42.3 °F 85% 30.07 in 10.0 mi NW 8.1 mph - N/A   Overcast
2:15 PM 46.8 °F - 42.6 °F 85% 30.07 in 10.0 mi WNW 8.1 mph - N/A   Overcast
2:55 PM 46.4 °F 40.4 °F 41.9 °F 84% 30.07 in 10.0 mi NW 13.8 mph - N/A   Overcast
3:15 PM 46.2 °F 40.5 °F 42.3 °F 86% 30.06 in 10.0 mi NW 12.7 mph 18.4 mph N/A   Overcast
3:35 PM 46.0 °F 40.2 °F 42.6 °F 88% 30.06 in 10.0 mi NW 12.7 mph 18.4 mph N/A   Overcast
3:55 PM 46.0 °F 39.9 °F 42.4 °F 87% 30.06 in 10.0 mi WNW 13.8 mph 17.3 mph N/A   Overcast
4:15 PM 45.9 °F 40.8 °F 42.8 °F 89% 30.06 in 10.0 mi NW 10.4 mph 16.1 mph N/A   Overcast
4:35 PM 45.9 °F 40.8 °F 42.8 °F 89% 30.06 in 10.0 mi NW 10.4 mph 19.6 mph N/A   Overcast
4:55 PM 45.9 °F 40.4 °F 42.6 °F 88% 30.06 in 7.0 mi NW 11.5 mph 16.1 mph N/A   Overcast
5:15 PM 46.0 °F 39.6 °F 42.8 °F 88% 30.06 in 7.0 mi NW 15.0 mph 19.6 mph N/A   Overcast
5:35 PM 45.9 °F 41.7 °F 42.8 °F 89% 30.07 in 7.0 mi NW 8.1 mph - N/A   Overcast
5:55 PM 46.0 °F 39.9 °F 42.8 °F 88% 30.07 in 10.0 mi NW 13.8 mph 17.3 mph N/A   Overcast
6:15 PM 46.4 °F 41.5 °F 42.8 °F 87% 30.07 in 10.0 mi NW 10.4 mph - N/A   Overcast
6:55 PM 46.4 °F 41.9 °F 43.0 °F 88% 30.08 in 10.0 mi NW 9.2 mph - N/A   Overcast
7:15 PM 46.4 °F 41.5 °F 42.8 °F 87% 30.09 in 10.0 mi NW 10.4 mph - N/A   Overcast
7:35 PM 46.8 °F - 42.3 °F 84% 30.09 in 10.0 mi NNW 6.9 mph 17.3 mph N/A   Overcast
7:55 PM 46.6 °F - 42.3 °F 85% 30.09 in 10.0 mi NNW 11.5 mph - N/A   Overcast
8:15 PM 46.4 °F 41.9 °F 42.3 °F 85% 30.09 in 10.0 mi NNW 9.2 mph - N/A   Overcast
8:35 PM 46.4 °F 42.9 °F 42.3 °F 85% 30.10 in 10.0 mi NNW 6.9 mph - N/A   Overcast
8:55 PM 46.4 °F 41.9 °F 42.3 °F 85% 30.10 in 10.0 mi NNW 9.2 mph 16.1 mph N/A   Overcast
9:15 PM 46.4 °F 41.5 °F 42.4 °F 86% 30.11 in 10.0 mi NNW 10.4 mph - N/A   Overcast
9:35 PM 46.6 °F - 42.8 °F 87% 30.11 in 10.0 mi North 8.1 mph - N/A   Overcast
9:55 PM 46.6 °F - 42.8 °F 87% 30.12 in 10.0 mi NNW 6.9 mph - N/A   Overcast
10:15 PM 46.6 °F - 42.8 °F 87% 30.12 in 10.0 mi NNW 9.2 mph - N/A   Overcast
10:35 PM 46.8 °F - 42.4 °F 85% 30.13 in 10.0 mi NW 9.2 mph - N/A   Overcast
10:55 PM 46.8 °F - 42.8 °F 86% 30.13 in 10.0 mi NW 12.7 mph - N/A   Overcast
11:15 PM 46.8 °F - 42.8 °F 86% 30.13 in 10.0 mi NW 10.4 mph - N/A   Overcast
11:35 PM 46.9 °F - 43.0 °F 86% 30.14 in 10.0 mi NNW 8.1 mph 18.4 mph N/A   Overcast
11:55 PM 46.9 °F - 43.0 °F 86% 30.14 in 10.0 mi NNW 9.2 mph - N/A   Overcast